Location: Asheville, NC
(35.6000°N, 82.5500°W)
Time: 17:29:16

YUBILEINY - Pass Details

Date: 11 March 2018
Orbit: 1477 x 1509 km, 82.5° (Epoch: 18 March)

Event Time Altitude Azimuth Distance (km) Brightness Sun altitude
Rises 21:25:07 0° 245° (WSW) 4,596 ? -23.2°
Reaches altitude 10° 21:30:14 10° 270° (W) 3,616 ? -24.2°
Maximum altitude 21:33:58 13° 297° (WNW) 3,364 ? -24.9°
Drops below altitude 10° 21:37:44 10° 323° (NW) 3,619 ? -25.7°
Sets 21:42:57 0° 349° (N) 4,603 ? -26.7°
